Time,TemperatureF,DewpointF,PressureIn,WindDirection,WindDirectionDegrees,WindSpeedMPH,WindSpeedGustMPH,Humidity,HourlyPrecipIn,Conditions,Clouds,dailyrainin,SoftwareType,DateUTC
2013-03-16 00:01:00,47.4,47.0,30.09,ENE,74,0.0,-999.0,97,-99.99,,,0.10,weatherlink.com 1.10,2013-03-16 07:01:00,
2013-03-16 00:15:00,47.3,47.0,30.09,NE,34,0.0,-999.0,97,-99.99,,,0.00,weatherlink.com 1.10,2013-03-16 07:15:00,
2013-03-16 00:30:00,47.2,46.0,30.09,NNE,17,1.0,-999.0,97,-99.99,,,0.00,weatherlink.com 1.10,2013-03-16 07:30:00,
2013-03-16 00:45:00,47.0,46.0,30.09,NNE,24,0.0,-999.0,96,-99.99,,,0.00,weatherlink.com 1.10,2013-03-16 07:45:00,
2013-03-16 01:00:00,46.8,46.0,30.09,North,5,1.0,-999.0,96,-99.99,,,0.00,weatherlink.com 1.10,2013-03-16 08:00:00,
2013-03-16 01:15:00,46.4,45.0,30.08,North,5,0.0,-999.0,95,-99.99,,,0.00,weatherlink.com 1.10,2013-03-16 08:15:00,
2013-03-16 01:30:00,45.8,45.0,30.08,North,5,0.0,-999.0,95,-99.99,,,0.00,weatherlink.com 1.10,2013-03-16 08:30:00,
2013-03-16 01:45:00,45.5,45.0,30.08,North,5,0.0,-999.0,96,-99.99,,,0.00,weatherlink.com 1.10,2013-03-16 08:45:00,
2013-03-16 02:00:00,45.4,44.0,30.08,North,5,0.0,-999.0,96,-99.99,,,0.00,weatherlink.com 1.10,2013-03-16 09:00:00,
2013-03-16 02:16:00,45.4,44.0,30.07,North,5,0.0,-999.0,96,-99.99,,,0.00,weatherlink.com 1.10,2013-03-16 09:16:00,
2013-03-16 02:31:00,45.3,44.0,30.07,North,5,0.0,-999.0,96,-99.99,,,0.00,weatherlink.com 1.10,2013-03-16 09:31:00,
2013-03-16 02:46:00,45.3,45.0,30.07,North,5,0.0,-999.0,97,-99.99,,,0.00,weatherlink.com 1.10,2013-03-16 09:46:00,
2013-03-16 03:01:00,45.5,45.0,30.07,NW,319,0.0,-999.0,97,-99.99,,,0.00,weatherlink.com 1.10,2013-03-16 10:01:00,
2013-03-16 03:16:00,45.6,45.0,30.06,SW,229,1.0,-999.0,96,-99.99,,,0.00,weatherlink.com 1.10,2013-03-16 10:16:00,
2013-03-16 03:31:00,45.5,45.0,30.05,West,265,0.0,-999.0,96,-99.99,,,0.00,weatherlink.com 1.10,2013-03-16 10:31:00,
2013-03-16 03:46:00,45.4,44.0,30.05,South,186,0.0,-999.0,95,-99.99,,,0.00,weatherlink.com 1.10,2013-03-16 10:46:00,
2013-03-16 04:01:00,45.0,44.0,30.04,West,271,0.0,-999.0,95,-99.99,,,0.00,weatherlink.com 1.10,2013-03-16 11:01:00,
2013-03-16 04:16:00,44.9,44.0,30.04,West,269,0.0,-999.0,96,-99.99,,,0.00,weatherlink.com 1.10,2013-03-16 11:16:00,
2013-03-16 04:31:00,44.9,44.0,30.03,North,355,0.0,-999.0,96,-99.99,,,0.00,weatherlink.com 1.10,2013-03-16 11:31:00,
2013-03-16 04:46:00,45.0,44.0,30.02,SSE,154,0.0,-999.0,96,-99.99,,,0.00,weatherlink.com 1.10,2013-03-16 11:46:00,
2013-03-16 05:01:00,45.1,44.0,30.02,South,183,0.0,-999.0,96,-99.99,,,0.00,weatherlink.com 1.10,2013-03-16 12:01:00,
2013-03-16 05:15:00,45.4,44.0,30.02,WSW,238,0.0,-999.0,96,-99.99,,,0.00,weatherlink.com 1.10,2013-03-16 12:15:00,
2013-03-16 05:30:00,45.6,44.0,30.02,SW,225,0.0,-999.0,95,-99.99,,,0.01,weatherlink.com 1.10,2013-03-16 12:30:00,
2013-03-16 05:46:00,45.6,44.0,30.01,South,185,0.0,-999.0,95,-99.99,,,0.01,weatherlink.com 1.10,2013-03-16 12:46:00,
2013-03-16 06:01:00,45.4,44.0,30.00,South,185,0.0,-999.0,96,-99.99,,,0.01,weatherlink.com 1.10,2013-03-16 13:01:00,
2013-03-16 06:16:00,45.3,44.0,29.99,South,185,0.0,-999.0,96,-99.99,,,0.02,weatherlink.com 1.10,2013-03-16 13:16:00,
2013-03-16 06:31:00,45.2,44.0,29.99,SW,231,2.0,-999.0,96,-99.99,,,0.03,weatherlink.com 1.10,2013-03-16 13:31:00,
2013-03-16 06:47:00,45.2,44.0,29.99,SW,231,0.0,-999.0,96,-99.99,,,0.04,weatherlink.com 1.10,2013-03-16 13:47:00,
2013-03-16 07:01:00,45.2,44.0,29.98,NW,304,0.0,-999.0,96,-99.99,,,0.07,weatherlink.com 1.10,2013-03-16 14:01:00,
2013-03-16 07:16:00,45.3,45.0,29.98,NW,304,0.0,-999.0,97,-99.99,,,0.10,weatherlink.com 1.10,2013-03-16 14:16:00,
2013-03-16 07:31:00,45.4,45.0,29.97,NW,304,0.0,-999.0,97,-99.99,,,0.11,weatherlink.com 1.10,2013-03-16 14:31:00,
2013-03-16 07:46:00,45.4,45.0,29.97,NW,304,0.0,-999.0,97,-99.99,,,0.11,weatherlink.com 1.10,2013-03-16 14:46:00,
2013-03-16 08:01:00,45.3,45.0,29.96,NW,304,0.0,-999.0,97,-99.99,,,0.12,weatherlink.com 1.10,2013-03-16 15:01:00,
2013-03-16 08:17:00,45.4,45.0,29.97,North,355,0.0,-999.0,97,-99.99,,,0.13,weatherlink.com 1.10,2013-03-16 15:17:00,
2013-03-16 08:32:00,45.5,45.0,29.96,North,355,0.0,-999.0,97,-99.99,,,0.13,weatherlink.com 1.10,2013-03-16 15:32:00,
2013-03-16 08:47:00,45.4,45.0,29.96,North,355,0.0,-999.0,97,-99.99,,,0.13,weatherlink.com 1.10,2013-03-16 15:47:00,
2013-03-16 09:02:00,45.5,45.0,29.95,NNE,32,2.0,-999.0,97,-99.99,,,0.13,weatherlink.com 1.10,2013-03-16 16:02:00,
2013-03-16 09:20:00,45.6,45.0,29.96,NNE,25,2.0,-999.0,97,-99.99,,,0.13,weatherlink.com 1.10,2013-03-16 16:20:00,
2013-03-16 09:31:00,46.1,45.0,29.96,NNE,32,0.0,-999.0,97,-99.99,,,0.13,weatherlink.com 1.10,2013-03-16 16:31:00,
2013-03-16 09:46:00,46.1,45.0,29.96,North,5,0.0,-999.0,96,-99.99,,,0.13,weatherlink.com 1.10,2013-03-16 16:46:00,
2013-03-16 10:01:00,46.1,45.0,29.95,West,281,3.0,-999.0,96,-99.99,,,0.14,weatherlink.com 1.10,2013-03-16 17:01:00,
2013-03-16 10:20:00,46.2,45.0,29.95,West,279,0.0,-999.0,96,-99.99,,,0.14,weatherlink.com 1.10,2013-03-16 17:20:00,
2013-03-16 11:01:00,44.8,43.0,29.96,North,355,4.0,-999.0,94,-99.99,,,0.14,weatherlink.com 1.10,2013-03-16 18:01:00,
2013-03-16 11:17:00,44.3,42.0,29.96,North,360,0.0,-999.0,92,-99.99,,,0.15,weatherlink.com 1.10,2013-03-16 18:17:00,
2013-03-16 11:32:00,44.3,42.0,29.96,NNE,19,1.0,-999.0,92,-99.99,,,0.15,weatherlink.com 1.10,2013-03-16 18:32:00,
2013-03-16 11:47:00,44.4,42.0,29.96,West,275,0.0,-999.0,92,-99.99,,,0.15,weatherlink.com 1.10,2013-03-16 18:47:00,
2013-03-16 12:02:00,44.2,42.0,29.96,NNW,347,0.0,-999.0,91,-99.99,,,0.15,weatherlink.com 1.10,2013-03-16 19:02:00,
2013-03-16 12:46:00,44.2,41.0,29.94,ENE,75,0.0,-999.0,89,-99.99,,,0.15,weatherlink.com 1.10,2013-03-16 19:46:00,
2013-03-16 13:01:00,45.0,41.0,29.94,West,261,4.0,-999.0,87,-99.99,,,0.15,weatherlink.com 1.10,2013-03-16 20:01:00,
2013-03-16 13:17:00,45.0,41.0,29.93,NNE,22,4.0,-999.0,87,-99.99,,,0.15,weatherlink.com 1.10,2013-03-16 20:17:00,
2013-03-16 13:32:00,44.9,41.0,29.93,NW,313,0.0,-999.0,85,-99.99,,,0.15,weatherlink.com 1.10,2013-03-16 20:32:00,
2013-03-16 13:47:00,44.7,41.0,29.92,North,355,3.0,-999.0,85,-99.99,,,0.15,weatherlink.com 1.10,2013-03-16 20:47:00,
2013-03-16 14:02:00,45.0,41.0,29.92,WNW,302,0.0,-999.0,85,-99.99,,,0.15,weatherlink.com 1.10,2013-03-16 21:02:00,
2013-03-16 14:16:00,44.4,40.0,29.91,SW,223,7.0,-999.0,85,-99.99,,,0.15,weatherlink.com 1.10,2013-03-16 21:16:00,
2013-03-16 14:31:00,44.5,41.0,29.91,NNW,345,0.0,-999.0,86,-99.99,,,0.15,weatherlink.com 1.10,2013-03-16 21:31:00,
2013-03-16 15:01:00,44.8,40.0,29.90,WNW,300,0.0,-999.0,83,-99.99,,,0.15,weatherlink.com 1.10,2013-03-16 22:01:00,
2013-03-16 15:17:00,45.5,41.0,29.90,SW,236,10.0,-999.0,85,-99.99,,,0.15,weatherlink.com 1.10,2013-03-16 22:17:00,
2013-03-16 15:32:00,44.5,40.0,29.90,North,5,1.0,-999.0,83,-99.99,,,0.15,weatherlink.com 1.10,2013-03-16 22:32:00,
2013-03-16 15:48:00,44.5,40.0,29.90,NW,304,0.0,-999.0,84,-99.99,,,0.16,weatherlink.com 1.10,2013-03-16 22:48:00,
2013-03-16 16:01:00,42.2,39.0,29.90,ENE,69,1.0,-999.0,89,-99.99,,,0.18,weatherlink.com 1.10,2013-03-16 23:01:00,
2013-03-16 16:16:00,42.8,40.0,29.90,WSW,244,1.0,-999.0,90,-99.99,,,0.18,weatherlink.com 1.10,2013-03-16 23:16:00,
2013-03-16 16:31:00,43.3,40.0,29.90,ESE,123,2.0,-999.0,88,-99.99,,,0.18,weatherlink.com 1.10,2013-03-16 23:31:00,
2013-03-16 16:48:00,42.8,39.0,29.91,SW,221,3.0,-999.0,87,-99.99,,,0.18,weatherlink.com 1.10,2013-03-16 23:48:00,
2013-03-16 17:01:00,41.2,39.0,29.91,West,271,1.0,-999.0,90,-99.99,,,0.21,weatherlink.com 1.10,2013-03-17 00:01:00,
2013-03-16 17:17:00,41.1,39.0,29.91,South,182,1.0,-999.0,91,-99.99,,,0.22,weatherlink.com 1.10,2013-03-17 00:17:00,
2013-03-16 17:32:00,41.8,40.0,29.90,ENE,65,1.0,-999.0,92,-99.99,,,0.22,weatherlink.com 1.10,2013-03-17 00:32:00,
2013-03-16 17:48:00,42.0,40.0,29.90,East,98,0.0,-999.0,91,-99.99,,,0.22,weatherlink.com 1.10,2013-03-17 00:48:00,
2013-03-16 18:01:00,41.8,39.0,29.89,North,5,0.0,-999.0,90,-99.99,,,0.22,weatherlink.com 1.10,2013-03-17 01:01:00,
2013-03-16 18:31:00,41.2,39.0,29.89,ENE,60,0.0,-999.0,91,-99.99,,,0.22,weatherlink.com 1.10,2013-03-17 01:31:00,
2013-03-16 18:48:00,41.1,39.0,29.90,North,11,0.0,-999.0,91,-99.99,,,0.22,weatherlink.com 1.10,2013-03-17 01:48:00,
2013-03-16 19:02:00,40.9,39.0,29.90,NNE,33,0.0,-999.0,92,-99.99,,,0.23,weatherlink.com 1.10,2013-03-17 02:02:00,
2013-03-16 19:17:00,39.9,38.0,29.90,SSW,204,3.0,-999.0,92,-99.99,,,0.24,weatherlink.com 1.10,2013-03-17 02:17:00,
2013-03-16 19:32:00,39.3,37.0,29.90,NNW,338,0.0,-999.0,92,-99.99,,,0.24,weatherlink.com 1.10,2013-03-17 02:32:00,
2013-03-16 19:49:00,39.2,37.0,29.90,North,5,0.0,-999.0,93,-99.99,,,0.24,weatherlink.com 1.10,2013-03-17 02:49:00,
2013-03-16 20:17:00,38.9,37.0,29.91,East,83,0.0,-999.0,94,-99.99,,,0.26,weatherlink.com 1.10,2013-03-17 03:17:00,
2013-03-16 20:32:00,38.8,37.0,29.92,North,5,0.0,-999.0,94,-99.99,,,0.27,weatherlink.com 1.10,2013-03-17 03:32:00,
2013-03-16 20:49:00,38.8,37.0,29.92,North,5,0.0,-999.0,94,-99.99,,,0.27,weatherlink.com 1.10,2013-03-17 03:49:00,
2013-03-16 21:02:00,38.5,37.0,29.93,North,5,0.0,-999.0,94,-99.99,,,0.27,weatherlink.com 1.10,2013-03-17 04:02:00,
2013-03-16 21:17:00,38.4,37.0,29.93,North,5,0.0,-999.0,95,-99.99,,,0.28,weatherlink.com 1.10,2013-03-17 04:17:00,
2013-03-16 21:32:00,38.6,37.0,29.93,SSE,150,0.0,-999.0,95,-99.99,,,0.28,weatherlink.com 1.10,2013-03-17 04:32:00,
2013-03-16 21:49:00,38.4,37.0,29.93,ENE,71,2.0,-999.0,94,-99.99,,,0.28,weatherlink.com 1.10,2013-03-17 04:49:00,